Wind_Speed
17 20 22 26 29 31 31 29 26 24 23 23 23 23 23 24 25 25 26 27 28 30 30 30 31 31 32 32 32 32 32 33 34 34 35 38 37 37 37 37 38 39 39 40 40 41 42 42 41 41 41 40 40 40 39 38 37 37 36 35 36 36 36 36 38 38 37 36 36 34 33 32 31 31 31 30 29 25 22 21 21 20 22 24 25
16 16 17 18 19 21 24 24 23 23 22 21 20 19 19 20 22 23 24 24 26 28 29 29 30 31 31 32 32 32 32 33 34 34 36 38 38 38 39 39 39 39 40 41 41 41 42 42 42 41 40 39 40 39 38 37 36 36 36 37 37 38 36 36 37 38 38 37 36 35 34 35 34 32 32 32 29 25 25 23 21 21 22 23 23
14 14 13 13 13 15 17 19 20 19 18 16 15 15 15 17 18 19 20 22 24 26 26 27 29 30 31 32 32 32 33 34 34 35 37 38 39 40 40 40 40 41 41 42 42 41 41 42 42 42 41 40 40 39 38 38 37 38 38 38 38 38 36 35 37 38 38 37 36 36 36 37 36 34 33 29 25 24 25 23 20 20 22 23 24
11 12 12 12 12 13 14 15 14 12 10 8 7 8 10 11 13 15 17 19 21 24 25 26 27 29 30 32 32 32 34 35 35 36 37 38 40 41 41 42 42 42 42 43 43 42 42 42 43 43 42 41 41 39 38 39 39 38 38 36 37 37 35 34 35 36 37 37 36 36 36 36 36 35 32 27 23 24 24 23 21 21 23 24 24
9 10 10 10 10 10 11 11 9 6 4 3 4 5 8 10 12 14 16 17 19 21 23 25 26 28 29 30 32 32 33 34 36 36 37 38 40 41 42 42 43 43 43 43 43 42 42 43 43 42 41 41 41 40 40 40 39 37 36 35 34 33 32 31 31 32 34 36 37 37 37 37 36 34 32 27 25 25 26 25 23 23 25 25 24
9 9 9 8 8 8 9 9 8 7 6 5 5 6 9 11 14 17 18 20 20 21 22 24 25 27 28 29 31 32 33 34 36 37 38 38 40 41 41 42 43 43 43 43 43 42 42 43 43 42 42 42 41 40 39 38 36 35 35 34 32 31 31 31 32 34 37 39 39 38 38 37 35 33 31 29 28 27 27 26 25 25 26 25 25
11 9 9 8 9 9 9 9 9 10 10 9 8 9 11 14 17 20 21 23 23 24 24 25 26 27 28 29 30 31 33 34 36 37 38 38 39 40 41 42 43 43 43 43 42 42 42 43 43 42 42 40 39 38 36 34 33 32 32 32 32 31 31 32 32 35 39 38 35 34 33 33 33 31 29 29 29 28 28 28 27 27 27 26 25
14 12 11 10 10 10 11 12 12 13 14 13 13 15 17 19 22 24 25 26 26 27 27 28 28 28 28 29 30 31 33 35 37 38 38 39 40 41 41 42 42 43 43 43 42 42 42 43 43 42 41 39 38 37 34 32 33 33 31 31 32 33 34 34 32 32 35 36 34 33 32 32 32 31 30 30 30 30 30 29 29 28 27 26 25
17 17 15 14 14 14 14 15 16 17 18 17 18 20 23 25 27 29 30 30 30 30 30 31 31 30 30 29 30 31 33 35 36 37 39 39 40 41 41 42 43 43 43 43 43 43 42 43 43 41 40 39 37 35 33 32 33 35 34 33 34 36 36 36 33 31 33 37 36 35 35 35 33 31 30 32 31 29 28 27 27 27 26 25 24
19 19 18 17 17 17 18 19 20 21 21 22 22 24 26 28 30 32 33 34 33 32 32 33 33 33 32 31 30 31 33 35 36 37 38 39 40 40 41 42 42 42 42 42 42 43 42 42 42 40 39 38 36 34 34 34 34 34 34 34 36 37 37 36 34 33 35 38 37 36 37 36 34 33 32 32 29 26 24 23 24 25 26 26 25
19 18 18 17 17 18 19 21 22 23 23 24 25 26 28 30 32 34 35 35 34 34 35 36 35 35 34 34 33 32 33 34 35 36 37 38 38 39 40 41 41 41 41 41 42 42 41 41 40 39 38 37 36 35 34 34 35 34 35 36 37 36 35 34 33 33 36 38 36 34 35 34 33 34 34 32 29 25 23 22 23 26 27 28 27
19 19 18 18 18 19 20 22 23 23 24 25 26 28 29 31 34 35 36 35 35 36 37 38 38 37 37 36 35 33 32 32 33 35 36 36 37 38 39 40 40 41 41 41 41 41 41 40 39 39 38 36 36 37 36 35 35 35 35 35 34 33 33 34 34 35 38 39 37 35 34 32 32 34 34 32 28 25 22 23 26 28 29 29 29
18 19 19 19 19 20 21 22 23 24 24 25 27 28 29 31 32 34 35 36 36 38 39 39 39 39 38 38 36 33 31 31 31 32 33 34 35 36 37 38 39 41 41 42 42 42 41 40 40 40 39 36 36 37 37 37 36 36 36 36 34 33 33 35 36 36 36 36 36 34 31 29 29 29 29 27 25 24 23 25 28 29 30 29 27
16 17 18 19 20 21 22 22 23 23 23 25 26 27 27 28 29 31 33 35 37 39 39 40 40 39 38 38 36 34 32 30 29 29 31 32 32 33 35 37 38 40 41 42 43 43 42 42 42 41 39 38 37 36 36 37 36 35 36 37 38 38 36 34 34 34 33 33 33 30 28 27 26 25 24 24 24 23 23 25 26 27 27 26 25
14 14 14 15 17 19 20 20 21 21 21 22 23 23 23 24 26 28 31 34 36 38 39 40 40 39 38 38 37 36 33 29 28 28 29 29 30 31 33 34 37 39 40 41 43 43 43 42 42 41 38 36 37 36 36 36 36 36 37 37 38 40 40 37 34 34 34 32 30 29 28 28 27 26 25 24 23 21 21 23 23 22 22 23 25
13 13 13 12 13 14 16 17 18 19 20 21 22 22 23 23 24 25 28 31 34 36 38 39 39 39 38 38 38 38 34 29 27 28 28 28 29 30 31 33 35 37 39 41 42 43 43 42 43 42 39 37 38 36 35 35 36 38 39 38 37 38 38 36 35 35 35 32 31 31 31 29 29 29 28 26 23 21 22 24 25 24 24 25 26
12 13 13 13 13 14 15 17 18 19 20 22 23 24 25 25 26 26 28 30 32 34 36 38 38 39 39 38 38 38 36 32 29 28 28 28 29 30 31 33 34 36 38 39 40 41 42 43 43 42 41 41 39 36 34 35 37 38 39 40 40 39 37 36 36 37 35 34 33 33 32 30 28 29 29 28 24 24 26 27 28 28 28 28 29
12 13 13 14 14 15 16 18 19 19 21 22 23 24 25 26 27 27 29 30 31 32 35 37 39 39 39 39 38 39 38 35 32 31 30 30 30 31 32 34 35 36 36 36 38 39 41 42 41 42 44 44 41 37 35 38 41 40 38 38 39 38 37 36 37 36 35 34 35 34 33 31 29 29 31 30 27 27 29 29 28 28 28 29 29
12 13 14 14 15 15 16 18 19 20 21 22 23 24 24 25 26 28 29 30 31 32 34 37 39 40 40 40 39 40 40 38 35 34 34 33 32 32 34 36 37 37 36 35 36 38 40 41 41 42 43 42 39 37 34 36 40 39 35 34 35 37 38 36 35 34 35 36 37 36 34 31 30 30 32 31 29 28 28 27 27 27 27 27 27
13 14 15 15 16 17 17 19 20 21 22 23 24 24 25 25 26 27 29 30 31 32 33 35 37 39 41 43 43 42 43 41 38 37 37 37 36 34 36 38 39 37 36 36 37 38 39 40 39 40 40 37 37 38 37 37 39 37 35 36 38 39 37 35 32 32 34 35 35 33 31 30 31 32 33 32 30 29 28 28 29 28 27 27 27
16 17 17 17 18 18 19 20 21 22 23 24 25 26 25 26 27 27 28 29 30 31 32 32 34 36 38 41 44 45 46 45 42 40 40 39 38 37 38 39 39 37 37 37 38 38 38 38 38 38 38 37 37 38 40 41 41 39 39 40 40 39 36 33 32 31 31 32 32 31 31 32 33 34 34 33 32 30 30 30 30 29 28 28 28
20 20 20 20 20 20 20 21 22 23 24 25 27 27 26 27 28 28 29 29 29 30 30 31 32 33 34 36 39 42 45 47 47 44 42 41 40 40 40 39 38 37 38 40 39 39 38 37 38 38 39 40 40 41 42 43 43 42 42 41 40 39 37 35 33 32 32 32 32 33 33 35 36 36 35 33 32 31 31 31 30 30 29 28 28
24 24 23 23 22 22 22 23 23 24 25 26 28 29 29 28 29 29 30 31 31 31 31 31 31 32 32 33 35 36 39 43 46 46 43 42 41 41 41 39 37 37 39 41 41 40 38 38 39 39 38 39 41 42 42 41 40 40 39 38 39 40 40 38 36 36 36 35 33 34 36 37 38 37 35 34 32 32 31 31 30 29 29 28 27
26 27 27 26 25 24 23 23 24 24 25 26 28 29 30 30 31 31 31 32 33 33 33 33 33 33 32 32 33 33 35 38 41 44 44 42 41 41 40 40 39 38 40 41 41 41 40 39 39 39 37 37 37 37 36 36 37 37 37 37 38 40 42 42 41 40 39 37 35 35 38 39 39 37 36 34 33 32 30 29 28 28 27 27 26
28 28 29 29 29 28 27 26 25 25 25 26 28 29 30 31 32 32 32 33 34 35 35 35 35 35 35 34 33 33 34 36 38 41 42 42 42 40 38 39 40 40 41 42 41 41 41 40 40 39 38 37 36 36 37 37 36 36 38 40 40 40 41 42 42 41 40 38 36 37 38 40 39 37 36 35 33 30 28 27 27 27 27 27 27
29 31 31 32 32 32 32 31 30 28 27 27 28 29 29 31 32 33 34 34 34 35 36 36 37 37 38 38 37 36 35 35 37 39 40 41 42 40 36 37 38 39 41 42 41 40 40 40 40 39 38 36 35 37 40 40 39 38 39 41 41 42 42 42 42 43 42 38 37 37 38 40 40 38 36 35 33 29 27 27 27 27 29 29 28
31 33 33 34 34 34 35 35 34 33 31 30 30 30 30 31 32 33 34 35 35 36 36 37 37 38 39 40 40 40 39 37 37 38 39 39 40 39 36 34 34 36 39 42 41 40 40 40 40 40 40 39 38 36 36 37 40 42 43 43 43 43 45 44 43 43 41 37 36 37 40 41 41 40 38 35 32 29 28 27 27 28 30 30 29
33 35 35 35 36 36 36 37 37 37 36 34 33 33 32 33 33 34 34 35 35 36 37 38 39 39 39 40 41 42 42 41 40 40 39 38 37 37 36 34 32 33 35 38 40 40 41 42 43 43 43 40 35 33 33 35 38 42 45 47 47 46 47 46 44 42 40 36 36 39 42 44 43 41 38 34 31 29 29 28 28 29 30 29 29
32 34 35 36 37 37 37 38 39 40 40 39 38 36 36 35 35 36 35 34 34 35 37 39 40 39 39 40 41 42 43 43 42 42 42 39 36 35 35 33 32 31 31 32 35 38 40 43 44 44 41 37 34 35 37 39 39 42 45 48 48 48 48 47 46 44 42 38 38 41 44 44 43 40 37 33 31 30 30 29 29 30 30 29 28
32 33 34 36 37 37 38 38 39 40 41 41 41 40 40 38 38 39 38 35 33 34 36 38 39 38 38 40 40 41 42 42 42 42 43 43 39 35 33 32 31 30 29 28 30 35 38 41 43 42 39 38 38 40 40 40 42 44 46 48 48 49 49 48 47 46 43 40 40 42 43 44 42 39 36 34 32 31 30 30 30 31 30 30 29
34 36 36 37 37 38 39 40 40 41 41 41 41 42 42 42 41 41 41 40 38 36 36 37 37 37 38 40 40 40 41 40 40 40 41 43 42 38 35 33 31 29 28 27 30 34 38 41 44 43 41 41 42 43 43 43 44 46 47 49 49 49 49 48 47 47 45 42 42 43 44 44 42 39 36 35 33 32 31 30 31 32 31 30 29
36 38 39 39 39 39 39 40 41 42 42 42 42 42 44 44 43 42 42 42 42 42 40 40 39 38 38 39 39 40 40 38 38 37 38 39 41 40 37 34 32 30 27 27 31 36 39 42 44 45 45 44 44 44 44 45 47 47 48 50 51 51 50 48 47 47 46 44 44 46 46 44 41 38 36 35 33 31 31 32 33 33 32 31 30
38 40 41 41 41 41 41 41 42 43 43 43 44 44 44 45 46 46 44 43 44 44 44 44 42 40 40 39 39 40 39 38 37 36 35 36 38 39 38 36 33 31 29 31 34 36 38 42 44 46 47 46 45 44 45 47 48 49 49 50 51 50 49 47 47 48 48 47 47 47 46 44 40 38 36 35 33 31 31 33 34 34 33 32 30
41 42 42 42 42 43 43 43 43 44 44 44 45 45 45 45 46 47 48 47 46 46 46 46 45 44 42 41 41 40 40 39 38 36 34 34 34 35 36 37 35 32 31 34 37 38 40 43 45 46 47 48 46 45 46 47 49 50 50 51 50 48 47 48 49 51 51 49 48 47 45 43 40 39 38 35 33 31 32 34 34 34 33 32 30
45 44 44 43 43 44 44 44 44 45 46 46 46 46 47 47 47 47 48 49 49 49 49 49 48 47 45 43 42 42 41 40 40 38 35 32 31 30 32 36 38 35 34 37 41 42 43 44 46 47 48 48 48 47 47 48 50 51 51 50 49 47 48 49 50 51 51 50 49 47 45 42 39 38 37 34 33 33 34 35 35 34 33 31 30
47 46 46 45 44 45 46 46 46 46 46 47 47 48 49 48 48 49 49 50 51 52 52 52 51 50 48 46 43 42 41 41 41 39 35 31 27 27 30 36 39 38 37 40 43 45 45 45 45 47 47 48 48 48 47 48 49 50 50 50 48 48 48 48 48 48 48 49 49 47 44 41 40 38 35 33 33 34 35 36 35 33 32 31 30
48 48 48 47 46 46 47 48 48 48 48 48 48 49 50 50 50 50 50 51 52 52 54 54 54 53 52 50 46 43 42 41 41 40 38 32 27 27 32 36 37 39 41 41 42 45 47 47 46 47 47 48 49 48 48 49 49 48 48 48 48 49 49 47 45 46 47 49 49 47 44 42 41 38 35 34 35 35 35 35 34 33 32 31 30
49 50 50 49 48 48 49 50 50 50 50 49 49 49 50 51 51 51 51 52 52 52 54 55 55 54 54 52 48 46 43 42 41 41 40 35 30 30 33 35 36 39 42 42 40 42 46 48 48 48 48 49 49 49 49 49 49 48 47 46 47 48 47 45 45 48 50 51 50 47 44 43 40 37 36 36 37 36 35 35 34 33 32 32 30
52 53 52 50 49 50 50 50 51 51 51 51 51 50 50 51 52 51 51 51 52 53 54 54 55 56 54 51 48 46 44 43 43 42 41 37 34 31 32 35 37 39 41 41 39 40 44 47 48 48 49 49 50 50 49 49 49 48 46 44 44 46 47 47 49 50 50 49 48 46 44 42 39 37 37 37 37 36 35 34 33 32 32 32 30
54 55 55 53 51 51 51 51 52 52 52 52 52 51 51 52 51 51 51 51 52 53 53 54 56 56 53 50 46 45 44 45 44 43 41 39 36 33 31 33 37 39 40 41 40 40 43 46 47 48 49 50 51 50 50 49 48 46 44 44 45 48 49 50 50 50 48 47 47 46 44 41 39 38 38 37 36 35 34 33 33 32 31 31 29
54 55 56 54 52 51 51 51 52 51 51 52 52 51 52 52 51 51 51 51 52 53 53 54 56 55 52 49 46 44 44 44 44 42 41 40 38 35 33 33 35 37 39 41 41 41 42 44 46 48 48 50 51 51 50 49 48 47 46 47 48 48 49 48 48 47 46 46 46 44 42 39 38 38 38 37 36 34 33 32 32 32 31 30 28
51 53 54 53 51 50 50 51 52 51 51 52 51 51 52 51 51 51 51 51 52 52 52 54 55 54 51 48 45 43 43 43 42 41 41 40 38 36 35 34 34 34 36 38 40 41 42 43 46 48 49 49 51 51 51 51 50 49 49 49 48 48 48 48 47 46 45 45 44 42 40 39 38 38 37 36 36 35 34 32 31 31 31 30 28
49 50 51 52 51 50 51 51 51 52 52 52 52 51 51 49 49 49 49 50 51 51 51 53 54 52 49 47 44 41 41 42 41 40 39 39 38 36 35 34 33 33 33 34 36 39 42 43 45 47 48 49 50 51 51 52 51 50 50 50 49 48 48 48 47 46 46 45 44 41 40 40 39 38 38 38 37 36 34 32 31 31 31 30 29
50 50 51 51 51 51 51 51 50 51 51 51 50 51 50 49 49 49 49 49 50 50 49 50 51 49 47 45 41 39 39 39 38 38 38 37 36 35 34 32 32 33 33 33 34 36 39 42 44 46 47 48 49 50 50 51 51 51 51 51 51 50 49 48 48 47 46 45 44 42 41 41 40 41 40 39 37 36 34 33 33 33 32 31 30
49 49 49 49 49 49 49 49 48 49 49 49 49 50 50 49 49 48 48 49 49 48 47 47 46 45 44 43 40 38 38 37 37 36 36 35 34 34 32 30 31 32 33 33 34 35 37 40 42 44 46 47 48 49 49 50 50 50 51 52 53 52 50 47 46 45 44 43 42 41 41 41 41 41 40 39 37 35 34 34 34 33 31 30 29
46 47 47 47 47 47 47 47 47 47 47 47 48 49 49 48 47 46 45 45 44 44 43 43 42 41 41 41 39 38 36 36 35 35 35 33 32 31 29 29 30 31 32 33 34 35 36 38 40 42 44 45 46 47 49 50 50 50 50 51 52 51 48 46 44 43 42 41 40 41 41 41 41 41 40 38 36 34 33 33 33 31 30 28 26
43 43 44 45 45 46 46 46 45 45 45 46 46 47 48 47 45 43 43 43 42 42 42 42 41 41 40 39 38 37 35 35 34 34 33 31 30 29 28 28 30 31 32 32 33 34 35 37 39 40 42 43 44 46 48 49 49 49 49 50 50 49 46 43 41 40 40 40 40 40 41 41 41 40 39 37 36 35 34 32 31 29 27 24 22
40 40 41 42 42 44 44 44 44 44 44 44 43 43 44 43 42 41 41 41 40 40 40 40 39 39 38 38 37 35 34 33 32 31 30 29 28 27 27 27 29 30 32 32 33 33 34 36 38 39 39 40 42 44 46 47 47 47 48 48 48 46 43 40 38 38 39 39 39 38 38 39 40 40 39 37 36 35 33 30 28 26 24 23 22
36 37 38 38 39 40 41 41 41 40 39 38 37 37 38 38 38 38 39 38 38 38 38 37 37 37 36 36 35 34 32 31 30 28 27 27 26 26 26 26 27 30 32 33 34 34 34 35 36 37 37 38 39 41 42 43 43 44 45 46 46 44 42 38 36 35 36 36 36 36 37 38 39 39 38 37 35 32 29 27 26 25 24 23 23
31 32 33 34 34 35 35 34 34 34 33 33 33 34 35 36 36 36 36 35 36 36 35 34 34 34 34 33 33 31 30 29 28 26 26 26 24 24 24 25 27 29 32 34 34 33 33 34 35 35 36 36 37 38 39 40 40 42 44 44 43 41 38 34 32 32 34 35 36 37 38 39 39 38 36 34 31 29 27 26 25 24 24 24 24
25 26 27 28 29 29 29 29 30 31 30 30 30 31 31 31 32 32 32 31 32 32 33 32 31 31 30 29 28 28 27 26 25 25 25 24 23 22 23 24 27 29 31 32 32 32 32 32 33 33 34 34 34 35 35 37 38 40 41 40 38 35 32 30 30 32 34 36 37 37 38 38 37 36 33 31 28 27 26 25 25 25 24 24 24
Wind_Direction
264 264 264 263 260 257 255 257 261 265 271 275 275 275 274 271 269 269 269 270 270 271 271 270 270 269 268 267 266 265 264 263 263 261 260 259 259 258 258 258 257 256 256 255 254 254 255 254 253 254 255 255 253 253 254 254 254 254 254 255 255 255 254 254 257 260 263 266 268 270 271 272 275 278 280 278 273 272 276 274 262 248 237 236 245
271 272 275 275 268 258 252 254 260 267 272 272 270 272 274 274 275 275 275 275 275 276 276 275 274 273 272 271 268 266 264 263 262 261 259 258 257 257 258 257 256 256 255 254 253 254 255 255 255 256 256 255 254 255 257 258 258 258 258 257 258 257 256 255 257 259 260 262 265 267 268 270 273 275 275 276 276 273 273 273 258 239 232 234 242
275 273 276 277 271 260 256 257 263 268 270 271 274 279 283 285 287 288 288 286 283 281 280 278 276 275 273 272 268 265 264 262 261 260 259 258 256 257 257 256 256 256 254 254 254 254 255 257 257 257 257 256 256 257 260 260 259 259 258 258 259 259 257 254 255 257 259 261 262 264 266 269 272 273 273 274 274 268 268 269 256 239 234 238 243
279 271 269 267 262 260 259 259 263 265 270 280 290 300 307 308 308 306 301 296 291 288 285 282 280 278 276 275 273 269 266 264 262 260 259 259 258 258 258 257 257 256 255 255 255 255 256 257 257 257 257 257 258 259 259 259 259 258 258 258 257 256 255 253 252 254 256 257 258 260 265 268 269 270 270 270 269 267 268 266 255 244 241 244 249
295 279 271 265 258 257 257 257 255 247 250 281 308 322 329 327 323 320 314 307 301 294 289 284 282 280 278 277 277 275 272 270 268 264 261 261 260 259 258 258 258 258 257 256 256 257 257 257 257 258 258 258 258 258 258 258 258 255 254 256 257 253 252 252 252 254 255 256 257 259 262 264 265 266 267 265 264 265 267 263 252 245 247 251 256
317 300 288 281 272 265 263 260 248 231 233 256 283 306 319 323 323 320 316 311 306 300 294 287 283 282 280 279 277 276 274 272 270 268 265 263 261 260 258 259 259 259 259 259 258 258 257 257 258 258 258 258 258 258 258 257 255 252 251 253 254 252 253 256 259 261 260 258 259 260 261 262 264 265 264 261 260 262 266 262 252 246 248 253 257
320 313 303 295 290 281 274 267 254 243 244 252 270 289 300 308 312 312 310 307 304 300 296 291 286 283 282 281 279 276 274 271 269 268 267 265 263 261 259 258 258 259 260 260 259 258 257 257 257 258 257 257 257 258 258 256 254 252 251 251 250 251 254 257 261 265 263 258 257 259 261 261 260 259 258 257 257 260 262 258 250 247 249 252 254
306 305 301 297 293 288 282 276 268 262 257 257 263 274 282 290 295 298 299 299 298 295 292 289 286 283 282 282 282 280 276 272 270 267 266 265 264 262 259 258 258 259 259 260 258 258 257 256 257 257 256 256 257 257 256 253 252 251 251 250 250 251 252 254 256 261 261 257 254 257 260 259 257 255 254 254 255 257 260 258 252 250 252 255 255
292 291 291 290 289 287 283 279 274 270 267 263 263 266 272 278 282 286 289 291 292 290 287 285 283 281 281 282 283 282 280 277 274 271 267 265 263 262 260 258 258 258 258 258 257 256 256 256 257 257 256 256 256 257 256 252 252 253 251 249 249 253 257 256 254 254 258 260 258 256 257 256 254 254 256 257 258 262 264 261 254 251 254 255 253
283 281 281 282 283 282 280 277 273 270 267 263 260 261 264 269 273 277 280 284 287 287 284 282 281 281 280 280 281 282 281 281 279 276 272 268 265 264 262 261 259 258 258 258 257 256 256 257 258 257 257 257 257 257 254 251 251 253 251 248 250 256 259 257 251 248 253 259 261 259 258 256 256 258 260 262 263 261 258 255 252 250 250 250 249
283 283 283 282 281 280 278 276 273 272 270 267 265 264 265 268 271 275 279 283 285 285 282 280 280 279 278 278 278 279 281 283 282 280 276 272 268 266 264 263 262 260 260 259 259 259 258 259 259 258 258 257 256 256 254 250 250 251 251 252 254 257 258 255 249 246 249 256 261 260 259 258 259 261 262 263 261 254 248 249 251 251 251 252 253
285 287 288 286 283 281 278 275 275 275 275 275 274 274 274 275 277 280 282 284 284 282 280 279 278 277 275 274 275 276 280 283 283 282 280 276 272 268 265 264 263 262 261 261 261 261 260 260 260 259 259 257 256 256 253 250 253 254 254 256 256 254 253 252 251 250 251 254 257 257 257 258 260 262 264 263 258 248 245 250 253 254 257 259 260
285 284 285 285 284 282 280 278 278 278 279 279 279 278 278 278 279 281 282 281 280 279 278 277 276 275 273 272 272 273 277 280 282 283 281 278 274 270 266 264 262 261 261 261 262 262 262 261 260 260 259 257 256 254 250 248 250 250 249 253 256 255 251 250 253 256 255 253 253 254 255 259 264 268 270 264 249 240 246 253 254 254 256 258 260
293 288 286 285 285 284 284 283 283 283 282 282 282 281 281 280 278 278 278 278 278 278 279 279 278 278 276 274 272 272 274 277 281 282 281 279 276 271 267 265 262 261 260 260 261 261 261 261 261 261 258 255 254 252 249 249 249 247 246 249 251 251 250 250 253 254 251 248 249 251 255 262 269 274 271 257 241 238 250 258 258 256 256 255 255
304 300 293 287 283 281 282 282 283 285 284 284 286 287 287 286 283 281 280 279 279 280 281 282 283 282 280 277 274 272 272 276 279 280 280 279 277 273 269 265 262 261 259 259 259 259 259 259 260 261 259 256 255 252 250 251 251 248 248 248 246 246 249 249 248 248 248 248 251 255 260 265 268 267 259 245 237 240 250 255 254 251 250 250 249
305 304 303 299 293 289 288 288 288 289 288 287 288 289 290 289 289 289 287 286 285 285 284 284 285 285 284 281 277 273 272 273 275 276 278 279 278 275 272 268 265 263 261 259 258 257 257 257 258 259 260 259 257 254 251 251 249 247 246 245 244 247 249 247 243 244 246 248 252 255 258 260 262 260 249 236 232 238 244 244 243 242 242 243 245
289 291 294 297 297 298 297 296 295 294 293 292 291 291 290 289 288 288 288 288 289 290 290 288 286 285 284 283 282 278 275 272 272 273 275 276 276 275 272 270 268 266 265 263 261 260 258 256 255 255 257 257 255 252 249 247 248 249 247 244 245 248 248 245 243 243 244 246 249 252 253 255 258 256 245 233 230 235 238 240 243 245 245 244 245
275 277 281 285 289 295 297 298 298 297 296 297 297 297 296 294 292 289 287 286 286 287 289 290 289 287 284 283 284 282 279 275 272 272 272 274 276 276 274 272 270 269 269 268 266 264 262 260 256 253 255 255 251 248 249 248 248 250 248 244 245 247 246 243 242 242 242 243 246 249 251 252 254 252 242 232 230 235 239 244 248 249 249 248 248
276 276 277 278 282 287 291 293 295 296 296 297 297 299 299 299 298 295 291 289 288 287 287 288 289 289 287 284 282 281 280 278 275 273 272 274 275 276 275 274 272 271 271 270 269 266 263 262 258 254 255 254 247 244 247 248 248 248 246 243 243 245 245 243 243 245 246 245 246 248 249 250 252 248 238 231 232 237 241 246 249 249 249 250 249
286 283 282 280 281 283 285 287 288 290 293 295 295 296 298 298 298 297 295 294 293 293 293 292 292 292 291 289 286 283 281 279 276 273 272 272 273 274 274 274 274 275 274 271 270 267 264 262 259 255 254 253 247 243 243 245 247 247 243 241 242 243 246 247 247 248 248 247 247 247 248 249 247 240 232 231 233 237 240 244 246 246 247 249 247
296 293 291 289 288 287 286 287 287 288 291 293 293 293 296 297 297 297 296 295 294 294 296 297 298 297 296 294 291 288 285 282 279 275 272 272 272 271 271 272 275 277 276 273 270 268 267 266 264 260 256 253 251 247 245 246 248 245 242 244 246 246 247 249 247 246 246 247 247 246 244 243 238 230 228 231 234 237 240 242 243 244 243 243 242
303 301 299 299 298 296 294 294 294 295 296 297 295 292 294 296 297 296 296 295 294 294 294 295 297 299 300 299 297 293 290 287 284 281 277 275 273 270 269 270 273 275 275 274 272 271 271 269 267 263 257 254 253 249 248 251 252 247 242 245 249 248 246 246 244 244 245 246 245 244 241 236 229 225 227 231 234 237 239 240 240 241 240 238 236
306 305 304 304 303 301 301 300 300 302 302 302 298 295 295 296 296 296 296 296 295 293 292 292 293 294 298 301 303 301 297 293 289 286 283 278 275 273 271 270 269 270 272 274 274 274 273 270 267 264 260 256 254 252 253 255 254 248 244 245 248 247 244 244 243 243 244 243 243 242 238 231 226 225 229 232 235 238 240 240 239 238 235 233 230
307 306 306 305 303 301 301 301 303 306 306 306 303 300 299 298 297 297 298 298 296 295 295 294 293 292 293 295 300 303 303 300 296 291 287 283 278 276 275 273 270 266 266 270 272 272 271 270 268 266 262 259 257 254 253 252 250 248 246 245 245 244 241 240 240 241 240 239 240 242 236 229 226 228 232 235 237 240 243 240 236 232 229 226 225
307 307 306 305 304 303 302 300 302 306 307 308 307 305 303 302 300 300 300 299 299 299 299 299 297 295 293 293 295 298 300 300 299 296 292 287 282 279 277 275 271 265 262 263 266 267 268 268 267 264 260 259 258 253 249 246 246 249 249 245 244 244 242 239 239 239 237 237 240 242 235 228 228 231 234 236 238 242 244 237 229 225 223 220 220
307 307 306 306 306 305 304 302 303 304 307 309 309 308 308 306 303 301 301 301 302 301 301 301 300 298 297 296 297 296 296 296 297 296 294 289 285 283 281 277 272 266 262 261 261 262 263 264 264 263 260 259 258 256 253 248 244 245 246 242 240 242 242 242 241 239 236 236 241 241 234 228 229 231 233 235 238 242 240 233 225 222 220 218 219
305 304 304 305 305 305 304 303 303 303 305 307 308 308 309 308 305 303 302 302 303 303 303 303 301 300 300 300 299 298 295 294 293 294 293 291 288 287 285 281 277 272 266 262 259 257 257 258 258 256 256 256 256 256 256 251 245 243 242 241 240 241 242 244 245 241 237 238 242 240 233 228 228 229 231 233 237 239 235 228 222 220 219 218 218
301 301 302 303 303 303 304 304 304 304 305 306 307 308 308 308 305 303 302 302 303 303 304 303 301 302 303 302 301 300 298 296 294 293 294 293 290 288 286 284 280 276 270 266 263 259 256 254 253 251 251 253 252 249 247 246 245 243 242 243 244 244 242 243 242 238 234 236 239 236 231 228 227 227 229 232 234 235 230 224 219 218 219 220 220
296 296 298 300 301 302 303 303 304 305 305 305 306 307 307 307 305 302 302 302 302 302 301 299 300 303 304 302 302 302 302 301 299 295 293 292 289 287 287 286 283 278 274 270 267 263 258 254 251 250 249 247 245 243 243 242 243 243 244 244 244 243 241 240 238 233 229 230 233 232 229 227 226 226 228 230 230 229 225 221 218 216 218 220 222
297 296 297 298 299 301 301 301 302 303 303 304 305 305 304 304 304 303 303 304 303 301 299 297 298 302 303 302 302 303 303 304 303 298 294 292 289 286 285 285 283 280 276 271 266 262 259 255 251 249 248 245 243 243 244 242 242 243 244 245 244 242 240 239 237 232 227 228 232 232 230 228 226 226 227 228 227 224 220 218 217 216 217 219 220
300 299 300 300 299 299 300 299 299 300 300 301 303 303 302 302 302 302 304 306 305 302 300 298 299 300 301 302 302 303 304 306 304 300 296 292 289 286 284 284 283 279 274 271 266 261 257 254 251 249 247 245 244 244 244 243 243 243 243 245 245 243 240 239 237 232 227 228 231 232 230 227 226 226 227 226 223 220 219 218 216 215 216 219 221
300 299 299 300 300 299 299 299 299 299 299 300 300 301 301 301 300 301 302 304 305 304 304 302 301 300 301 302 302 303 304 306 304 301 296 292 289 286 282 281 282 280 273 267 264 261 256 253 252 251 248 246 245 245 244 243 243 243 243 244 244 243 241 240 238 233 230 230 233 231 228 225 225 226 226 223 220 218 219 219 216 214 214 217 220
301 299 298 300 300 299 299 299 299 298 298 298 299 299 300 300 300 300 300 301 302 302 302 302 302 302 302 302 302 302 304 305 304 301 295 290 287 285 281 278 277 277 271 262 258 257 256 254 253 252 250 248 246 245 243 243 243 243 244 244 244 244 245 243 239 235 233 234 234 232 228 226 225 225 223 219 218 219 220 219 216 214 214 215 218
301 299 298 299 299 298 298 299 299 298 297 297 297 297 297 297 298 299 299 299 300 299 299 300 300 301 302 302 301 301 302 303 303 301 296 290 284 283 282 278 273 270 267 261 256 253 253 253 253 251 250 248 247 245 243 243 243 243 243 244 243 244 246 244 240 237 235 234 233 230 227 226 225 223 219 217 217 218 218 217 215 214 214 215 217
300 298 298 299 299 298 297 298 297 297 296 296 296 296 295 295 296 296 297 297 298 298 297 298 298 299 299 299 299 299 301 302 302 301 298 291 284 280 279 276 271 266 263 260 257 252 249 249 249 249 247 247 246 245 244 243 243 242 243 242 242 242 244 243 241 237 234 232 231 228 225 224 223 220 219 219 219 219 217 214 214 214 215 216 217
299 298 297 298 298 297 296 295 294 294 294 294 294 294 293 293 293 294 294 295 295 295 295 296 296 296 296 295 295 296 298 299 299 300 299 293 283 276 273 272 270 266 262 260 259 255 251 248 247 247 246 246 246 246 245 244 244 243 242 242 241 242 242 242 241 238 235 232 230 227 224 221 219 218 218 219 220 219 217 214 213 213 214 216 217
296 296 296 297 297 297 294 292 292 291 291 291 290 290 291 290 291 291 291 291 292 293 294 295 295 295 295 295 295 295 295 295 296 296 296 293 284 273 270 270 269 266 263 261 259 257 255 252 248 247 246 247 247 246 246 245 244 243 243 243 242 241 239 239 241 243 241 236 231 226 221 218 217 218 218 218 217 215 213 212 212 212 213 215 215
292 293 293 294 295 294 292 291 290 290 290 289 288 287 288 288 289 289 289 289 290 291 292 293 293 294 294 294 295 295 294 293 292 292 293 293 288 278 273 270 268 267 265 262 259 258 258 256 252 249 248 247 247 246 245 244 243 242 243 243 242 240 238 238 242 245 242 236 230 224 219 217 218 218 217 216 215 213 211 210 211 211 212 212 212
289 289 289 291 291 290 289 289 288 288 288 287 286 286 285 285 286 287 288 288 289 289 290 291 291 291 292 293 293 293 293 292 291 291 291 292 290 286 278 271 268 267 266 264 260 257 257 257 255 252 250 248 246 245 243 242 241 240 241 242 242 241 240 242 245 243 237 231 226 221 218 217 218 216 215 214 214 213 210 208 209 210 211 210 209
287 286 287 288 288 287 287 286 286 286 286 286 286 286 285 284 285 286 286 287 287 287 287 287 287 288 289 289 289 289 290 290 291 290 290 290 290 288 282 274 269 267 265 263 260 258 256 256 255 254 252 249 247 246 244 242 241 240 241 244 245 244 244 245 245 240 234 228 223 219 217 217 217 215 213 212 213 211 209 207 207 207 208 208 207
286 285 285 286 287 286 285 284 284 283 284 284 284 284 284 283 284 284 285 285 284 284 285 285 284 285 286 286 285 285 286 287 288 288 288 288 288 287 284 278 272 269 266 264 261 259 257 256 255 254 253 251 248 247 245 244 242 242 244 246 247 245 243 243 241 236 230 224 220 218 218 218 217 214 213 212 210 207 205 205 206 204 203 205 206
286 286 285 285 285 285 283 282 282 282 283 283 282 282 283 283 283 283 283 282 283 283 283 282 283 283 284 284 284 283 283 283 284 284 285 285 285 285 284 281 277 273 270 266 264 261 259 258 257 256 254 252 250 249 247 245 244 244 245 246 244 242 241 240 237 231 224 220 219 218 218 217 216 215 214 212 208 204 201 201 202 202 202 202 202
288 286 285 285 285 284 283 283 282 282 282 282 282 282 282 282 281 281 281 280 280 280 280 281 282 283 283 283 283 281 280 280 281 281 281 282 283 283 282 281 280 278 275 271 268 265 262 260 258 257 255 254 253 253 252 251 250 248 247 245 242 241 240 238 233 226 220 218 218 218 217 215 214 213 212 210 205 201 199 198 198 200 201 200 199
288 287 286 285 285 285 284 285 285 284 283 283 283 283 282 281 281 280 279 278 278 278 278 279 280 281 282 282 282 280 279 279 279 279 279 280 281 281 280 279 279 279 277 275 272 268 264 261 259 258 256 255 255 255 255 254 252 250 248 245 242 240 240 237 231 225 221 220 220 218 216 213 212 212 211 207 202 199 198 198 197 197 198 198 199
286 285 285 284 284 284 284 285 285 286 285 285 284 283 283 282 281 280 279 279 279 278 278 278 279 279 280 280 280 279 278 278 278 278 279 281 282 281 279 278 278 278 277 276 274 271 268 265 263 260 258 257 256 256 255 253 252 250 247 243 241 242 241 237 230 226 224 224 224 221 215 212 212 212 208 203 199 198 198 196 195 195 196 196 197
284 285 284 284 283 283 282 283 283 283 284 284 283 283 283 282 281 280 278 278 277 277 277 277 277 277 278 279 279 279 278 277 277 278 279 282 282 280 279 277 277 277 276 276 275 273 271 269 267 264 262 260 259 257 256 253 251 249 246 242 240 240 238 232 226 225 226 227 225 219 214 210 209 207 203 199 197 196 194 193 193 193 193 195 196
285 284 284 284 284 283 282 282 282 281 281 280 280 281 281 281 279 278 277 275 274 274 274 275 275 276 277 277 277 277 277 277 276 277 279 282 281 279 277 277 276 276 276 276 275 274 273 271 269 267 265 263 261 259 257 254 251 249 246 242 238 234 230 227 227 229 229 226 220 214 211 208 204 200 197 195 192 190 188 189 190 190 192 195 197
287 285 284 284 283 283 282 283 283 282 282 282 281 280 280 280 279 278 277 276 275 274 275 275 276 277 277 277 277 276 275 275 275 276 278 279 278 277 277 277 277 277 277 275 274 273 273 271 269 267 266 265 264 261 258 256 253 249 244 238 232 228 227 228 230 229 225 218 212 208 207 205 200 196 193 190 187 183 183 184 186 188 191 196 199
288 287 285 284 284 283 283 284 284 284 284 283 281 279 278 278 278 278 278 278 277 277 277 278 277 276 276 277 277 275 273 272 272 274 275 276 276 277 278 278 278 278 276 274 272 271 271 270 268 266 264 263 262 261 258 256 253 248 241 235 229 227 227 228 227 223 216 210 204 202 201 199 195 191 187 183 180 178 179 182 185 189 193 196 199
290 289 287 287 287 287 286 286 285 284 282 281 281 281 280 280 280 280 280 280 279 278 278 277 276 275 274 274 274 273 272 271 271 272 273 274 275 276 277 278 278 277 274 271 269 268 267 266 265 263 262 261 260 258 256 253 249 243 237 232 229 228 226 222 216 212 207 202 197 195 193 191 188 184 180 177 176 177 180 184 188 192 196 198 200
293 293 292 291 291 290 289 287 286 284 283 282 283 283 283 283 283 282 282 281 280 279 278 277 276 275 273 272 271 271 271 271 272 272 272 272 273 273 273 274 274 271 268 265 262 261 260 259 259 259 259 258 257 254 252 249 244 237 232 229 226 223 217 210 203 201 198 194 190 187 185 183 180 176 174 175 177 179 183 187 191 194 197 199 200
Height
1451 1451 1451 1451 1452 1452 1454 1455 1456 1457 1457 1458 1458 1459 1459 1459 1460 1460 1461 1462 1462 1462 1463 1463 1464 1464 1464 1465 1465 1466 1466 1466 1466 1466 1466 1465 1465 1466 1466 1467 1467 1466 1467 1466 1466 1467 1467 1467 1467 1468 1470 1470 1469 1470 1471 1473 1474 1474 1475 1476 1476 1477 1478 1478 1476 1476 1477 1478 1478 1478 1479 1479 1480 1481 1482 1482 1483 1484 1483 1482 1481 1480 1481 1483 1486
1448 1449 1449 1449 1448 1449 1451 1452 1453 1454 1455 1455 1456 1456 1456 1456 1457 1457 1458 1459 1459 1459 1460 1460 1461 1461 1461 1461 1461 1462 1462 1462 1462 1462 1461 1460 1460 1461 1461 1462 1462 1462 1462 1461 1462 1462 1462 1463 1463 1464 1465 1466 1465 1466 1467 1468 1469 1470 1471 1471 1471 1472 1473 1474 1473 1472 1473 1474 1474 1474 1475 1475 1476 1477 1477 1478 1479 1479 1479 1478 1477 1476 1476 1477 1479
1446 1446 1447 1447 1447 1448 1449 1450 1451 1452 1452 1453 1453 1454 1454 1454 1455 1455 1456 1456 1456 1456 1456 1457 1457 1457 1456 1457 1457 1457 1457 1457 1458 1457 1456 1456 1456 1456 1456 1456 1457 1457 1456 1456 1457 1458 1458 1458 1459 1459 1461 1461 1461 1462 1463 1464 1465 1465 1466 1467 1467 1467 1469 1470 1469 1469 1469 1470 1470 1470 1470 1470 1471 1472 1473 1474 1475 1475 1475 1475 1474 1473 1473 1473 1473
1444 1444 1445 1445 1445 1446 1447 1448 1449 1450 1450 1451 1451 1452 1452 1452 1453 1453 1453 1453 1453 1453 1453 1453 1453 1453 1452 1452 1452 1453 1453 1453 1453 1453 1452 1452 1451 1451 1451 1451 1451 1451 1451 1451 1452 1453 1454 1454 1454 1455 1456 1456 1456 1458 1459 1459 1460 1460 1461 1462 1462 1462 1464 1465 1465 1465 1466 1466 1466 1466 1467 1466 1466 1468 1469 1470 1470 1471 1471 1471 1471 1471 1470 1469 1469
1443 1443 1443 1444 1444 1445 1446 1446 1447 1448 1448 1449 1449 1450 1450 1450 1451 1451 1451 1451 1451 1451 1451 1450 1450 1449 1449 1449 1449 1449 1449 1449 1449 1448 1448 1448 1447 1446 1446 1446 1446 1446 1446 1447 1448 1448 1449 1449 1449 1450 1451 1451 1451 1453 1454 1454 1455 1456 1457 1457 1458 1459 1460 1461 1461 1462 1462 1461 1461 1462 1463 1462 1463 1464 1465 1465 1466 1466 1467 1467 1467 1468 1467 1467 1467
1442 1441 1442 1442 1443 1443 1443 1444 1445 1445 1446 1447 1447 1447 1448 1448 1448 1448 1448 1448 1448 1448 1447 1447 1446 1446 1445 1445 1445 1444 1444 1444 1444 1444 1444 1444 1443 1442 1442 1441 1441 1441 1442 1442 1443 1443 1444 1444 1445 1446 1446 1446 1447 1448 1449 1450 1451 1451 1452 1453 1454 1455 1456 1457 1458 1458 1458 1457 1457 1458 1458 1459 1459 1459 1460 1461 1462 1462 1463 1464 1464 1464 1464 1465 1464
1441 1441 1441 1441 1441 1441 1442 1442 1442 1443 1444 1444 1445 1445 1445 1445 1445 1445 1445 1445 1445 1445 1444 1443 1443 1442 1441 1440 1440 1440 1439 1439 1438 1438 1438 1438 1438 1438 1437 1437 1437 1437 1437 1437 1438 1439 1439 1439 1440 1440 1441 1441 1442 1443 1444 1445 1446 1447 1448 1449 1451 1452 1452 1453 1454 1454 1454 1453 1453 1453 1454 1455 1455 1455 1456 1457 1458 1459 1459 1460 1460 1461 1461 1462 1462
1440 1440 1440 1440 1440 1440 1440 1440 1440 1441 1441 1442 1442 1442 1442 1442 1442 1442 1442 1441 1441 1441 1440 1439 1438 1437 1437 1436 1435 1435 1434 1433 1433 1433 1433 1433 1433 1433 1432 1432 1432 1432 1432 1432 1433 1433 1434 1434 1434 1435 1436 1437 1438 1439 1440 1441 1442 1443 1444 1446 1447 1448 1448 1449 1450 1450 1450 1450 1450 1450 1450 1450 1450 1451 1452 1453 1453 1454 1456 1457 1457 1458 1459 1459 1459
1438 1438 1438 1438 1438 1438 1438 1438 1438 1438 1439 1439 1439 1439 1438 1438 1438 1438 1438 1437 1437 1437 1436 1435 1433 1433 1432 1431 1431 1430 1428 1428 1427 1428 1428 1428 1428 1427 1427 1427 1427 1427 1427 1427 1427 1428 1428 1429 1429 1430 1431 1432 1433 1435 1436 1437 1438 1439 1440 1442 1443 1443 1444 1444 1445 1446 1446 1446 1446 1446 1446 1446 1446 1447 1448 1448 1450 1452 1454 1454 1455 1455 1456 1456 1456
1435 1435 1435 1435 1436 1435 1435 1435 1435 1435 1435 1435 1435 1435 1434 1434 1434 1433 1433 1433 1433 1432 1431 1430 1429 1428 1427 1426 1425 1424 1423 1422 1422 1422 1423 1423 1423 1423 1422 1422 1422 1422 1422 1422 1422 1422 1422 1423 1424 1425 1426 1427 1429 1430 1431 1433 1434 1434 1436 1437 1438 1439 1439 1439 1440 1441 1442 1443 1443 1443 1443 1442 1443 1444 1444 1445 1448 1450 1451 1451 1451 1452 1452 1452 1452
1432 1432 1432 1432 1432 1432 1432 1432 1432 1432 1432 1431 1431 1431 1430 1430 1430 1429 1429 1429 1429 1428 1427 1426 1425 1424 1423 1421 1420 1419 1418 1418 1417 1417 1417 1418 1418 1418 1417 1417 1417 1417 1417 1417 1416 1417 1417 1418 1419 1420 1422 1423 1424 1425 1427 1428 1429 1430 1431 1432 1433 1433 1434 1434 1435 1436 1438 1438 1439 1439 1439 1439 1440 1441 1442 1443 1444 1446 1447 1448 1448 1448 1448 1448 1448
1430 1430 1429 1429 1429 1429 1429 1428 1428 1428 1428 1428 1428 1428 1427 1427 1427 1426 1426 1425 1425 1423 1422 1421 1420 1419 1418 1416 1415 1414 1413 1413 1413 1413 1413 1413 1413 1413 1413 1413 1412 1412 1412 1412 1412 1412 1413 1413 1414 1415 1416 1418 1419 1420 1422 1423 1424 1425 1426 1427 1427 1428 1429 1429 1430 1431 1433 1434 1435 1435 1435 1436 1437 1437 1438 1439 1441 1442 1443 1444 1444 1444 1444 1445 1445
1428 1427 1427 1427 1427 1426 1426 1425 1425 1425 1425 1425 1425 1424 1424 1423 1423 1422 1421 1420 1419 1418 1417 1416 1415 1414 1413 1411 1410 1409 1408 1409 1409 1408 1408 1408 1408 1409 1408 1408 1408 1408 1408 1408 1408 1408 1408 1409 1410 1410 1411 1413 1414 1415 1416 1418 1419 1420 1421 1421 1422 1423 1424 1424 1426 1427 1428 1429 1430 1430 1432 1433 1433 1434 1435 1436 1437 1438 1439 1440 1441 1441 1441 1442 1443
1425 1425 1425 1425 1425 1424 1424 1423 1423 1423 1423 1422 1421 1421 1420 1420 1419 1418 1417 1416 1415 1413 1412 1411 1410 1409 1408 1407 1406 1404 1404 1405 1405 1404 1404 1403 1404 1404 1403 1403 1403 1403 1403 1403 1403 1404 1404 1405 1405 1405 1407 1408 1410 1411 1412 1413 1414 1415 1416 1416 1416 1418 1419 1420 1421 1422 1423 1424 1425 1426 1428 1429 1430 1431 1432 1433 1434 1435 1436 1437 1438 1438 1439 1440 1440
1423 1423 1423 1423 1423 1422 1422 1422 1421 1421 1421 1420 1419 1419 1418 1417 1416 1415 1414 1412 1411 1410 1408 1407 1406 1405 1404 1403 1402 1400 1400 1401 1401 1400 1400 1400 1400 1399 1399 1398 1398 1398 1398 1398 1399 1399 1400 1400 1400 1401 1402 1403 1405 1406 1407 1408 1409 1409 1410 1411 1411 1412 1414 1415 1417 1418 1418 1419 1421 1423 1424 1426 1427 1428 1429 1429 1431 1432 1433 1434 1434 1435 1435 1436 1436
1420 1420 1420 1420 1420 1419 1419 1419 1419 1418 1418 1418 1417 1416 1415 1414 1413 1412 1410 1409 1407 1406 1405 1403 1402 1401 1400 1399 1397 1396 1396 1397 1397 1396 1396 1396 1396 1395 1394 1393 1393 1392 1392 1392 1393 1393 1394 1395 1395 1396 1397 1398 1400 1402 1403 1403 1404 1404 1405 1406 1406 1407 1408 1411 1412 1413 1414 1415 1417 1419 1420 1422 1423 1423 1424 1426 1427 1428 1429 1430 1430 1430 1430 1431 1431
1419 1418 1417 1417 1417 1416 1415 1415 1415 1415 1414 1414 1413 1413 1412 1411 1410 1408 1406 1405 1403 1402 1401 1399 1398 1397 1395 1395 1393 1392 1392 1393 1393 1392 1392 1392 1391 1390 1389 1388 1387 1386 1386 1387 1387 1387 1388 1389 1390 1391 1392 1393 1395 1397 1398 1399 1399 1399 1399 1401 1402 1402 1404 1406 1407 1408 1410 1411 1413 1414 1416 1417 1418 1419 1420 1421 1423 1424 1425 1425 1425 1426 1426 1426 1427
1417 1416 1415 1415 1414 1413 1413 1412 1411 1411 1410 1410 1409 1408 1407 1407 1406 1404 1403 1401 1400 1399 1397 1395 1393 1392 1391 1390 1390 1388 1388 1389 1390 1389 1388 1387 1387 1386 1385 1384 1382 1382 1382 1382 1382 1382 1382 1383 1384 1386 1386 1387 1389 1392 1393 1393 1393 1394 1395 1396 1396 1397 1398 1400 1402 1403 1405 1407 1409 1410 1411 1412 1413 1414 1415 1416 1418 1419 1420 1421 1422 1422 1422 1423 1424
1414 1414 1413 1413 1412 1411 1410 1409 1408 1407 1406 1405 1404 1403 1402 1402 1401 1400 1398 1397 1396 1395 1394 1392 1390 1388 1387 1385 1385 1384 1383 1384 1385 1385 1384 1383 1383 1382 1381 1379 1378 1378 1378 1378 1378 1377 1377 1378 1379 1380 1381 1382 1384 1386 1388 1388 1388 1388 1390 1391 1391 1391 1393 1395 1398 1399 1401 1403 1404 1405 1406 1407 1408 1409 1410 1411 1413 1414 1416 1418 1418 1417 1418 1419 1421
1412 1412 1411 1410 1410 1409 1408 1406 1405 1404 1402 1401 1400 1399 1398 1397 1396 1395 1393 1392 1391 1390 1389 1388 1386 1384 1383 1381 1380 1379 1378 1378 1379 1379 1379 1379 1378 1378 1376 1374 1373 1374 1374 1374 1373 1373 1373 1374 1374 1376 1377 1378 1379 1381 1382 1383 1383 1384 1386 1386 1385 1387 1390 1393 1394 1396 1397 1398 1399 1400 1401 1402 1403 1404 1406 1407 1408 1410 1412 1413 1413 1413 1414 1415 1416
1410 1409 1408 1407 1407 1406 1405 1404 1402 1401 1399 1398 1396 1395 1394 1393 1392 1390 1389 1387 1386 1385 1384 1383 1381 1380 1379 1377 1376 1374 1373 1372 1373 1373 1373 1373 1373 1372 1371 1369 1369 1370 1370 1369 1368 1368 1368 1369 1370 1371 1373 1375 1376 1377 1378 1378 1379 1380 1381 1381 1382 1385 1388 1389 1390 1391 1392 1393 1394 1394 1395 1397 1398 1400 1401 1402 1403 1405 1407 1408 1408 1409 1410 1410 1411
1407 1406 1405 1404 1403 1402 1401 1400 1399 1398 1396 1395 1393 1391 1391 1390 1388 1386 1385 1383 1382 1380 1379 1378 1377 1375 1374 1373 1371 1370 1368 1367 1366 1367 1368 1368 1367 1366 1365 1365 1366 1367 1365 1364 1363 1363 1364 1364 1365 1367 1370 1372 1373 1374 1374 1375 1375 1375 1376 1378 1380 1382 1384 1385 1386 1387 1387 1388 1388 1389 1390 1392 1393 1395 1396 1397 1399 1401 1403 1403 1404 1405 1406 1406 1407
1403 1402 1401 1401 1400 1399 1398 1396 1395 1394 1393 1391 1389 1388 1387 1386 1384 1383 1381 1379 1378 1376 1375 1374 1372 1370 1369 1368 1367 1365 1364 1361 1360 1360 1361 1361 1361 1360 1360 1360 1361 1361 1360 1358 1358 1359 1359 1360 1360 1362 1365 1367 1369 1370 1370 1371 1371 1371 1373 1375 1377 1378 1379 1381 1381 1381 1382 1382 1384 1384 1385 1386 1388 1390 1392 1393 1395 1397 1398 1399 1400 1401 1402 1403 1404
1400 1399 1398 1397 1396 1395 1394 1393 1392 1390 1389 1387 1386 1384 1383 1382 1380 1379 1378 1376 1374 1372 1371 1370 1368 1366 1364 1362 1361 1360 1359 1357 1355 1353 1353 1354 1354 1355 1355 1355 1356 1356 1354 1353 1353 1354 1354 1355 1355 1356 1359 1361 1363 1365 1367 1367 1367 1368 1370 1371 1372 1373 1374 1375 1375 1376 1377 1377 1378 1379 1380 1382 1384 1386 1388 1390 1391 1393 1394 1395 1396 1398 1399 1400 1402
1397 1396 1395 1394 1393 1392 1390 1389 1388 1387 1386 1385 1383 1381 1380 1378 1376 1375 1374 1372 1371 1369 1368 1366 1365 1362 1360 1357 1356 1355 1353 1352 1350 1348 1347 1346 1347 1348 1349 1350 1350 1349 1348 1347 1348 1349 1349 1350 1351 1352 1353 1356 1358 1360 1362 1362 1364 1365 1366 1366 1367 1367 1368 1369 1370 1370 1371 1371 1373 1374 1376 1378 1380 1382 1384 1386 1388 1389 1390 1391 1393 1394 1396 1397 1399
1393 1392 1391 1390 1389 1388 1386 1385 1384 1383 1383 1382 1380 1379 1377 1375 1373 1371 1370 1368 1367 1365 1363 1362 1360 1358 1355 1353 1351 1349 1348 1346 1344 1342 1341 1340 1340 1341 1343 1343 1343 1343 1343 1342 1343 1344 1344 1345 1346 1346 1348 1351 1353 1354 1355 1357 1359 1361 1361 1361 1361 1361 1362 1363 1363 1364 1365 1366 1369 1371 1373 1374 1376 1377 1379 1381 1383 1385 1386 1387 1389 1391 1392 1394 1396
1389 1388 1387 1386 1385 1384 1382 1381 1380 1379 1378 1378 1377 1376 1375 1373 1371 1368 1366 1365 1363 1361 1359 1357 1355 1353 1351 1349 1347 1345 1343 1341 1339 1337 1337 1336 1335 1336 1336 1337 1337 1338 1338 1338 1338 1339 1339 1339 1340 1341 1343 1345 1348 1349 1350 1352 1354 1355 1355 1355 1355 1356 1357 1357 1358 1359 1361 1363 1366 1367 1369 1370 1370 1372 1374 1376 1379 1380 1382 1383 1385 1387 1389 1391 1393
1386 1384 1383 1382 1381 1380 1378 1377 1375 1374 1373 1373 1372 1371 1370 1369 1367 1364 1363 1362 1360 1358 1356 1353 1351 1349 1347 1345 1343 1340 1339 1337 1336 1334 1332 1332 1331 1330 1331 1331 1332 1332 1332 1333 1334 1335 1335 1334 1334 1335 1336 1339 1341 1343 1345 1346 1348 1349 1350 1350 1351 1351 1352 1353 1354 1355 1357 1359 1361 1362 1362 1363 1365 1367 1369 1371 1374 1376 1378 1380 1382 1384 1386 1388 1390
1382 1381 1380 1378 1377 1375 1374 1372 1371 1369 1368 1367 1366 1366 1365 1364 1362 1360 1359 1358 1357 1354 1352 1349 1347 1346 1344 1341 1339 1336 1334 1333 1332 1331 1329 1328 1327 1326 1326 1327 1328 1328 1328 1329 1330 1331 1331 1329 1328 1328 1329 1332 1335 1337 1339 1340 1342 1344 1345 1345 1346 1347 1347 1347 1348 1350 1352 1353 1354 1355 1357 1359 1361 1362 1364 1367 1369 1371 1374 1376 1378 1381 1383 1385 1386
1378 1377 1376 1374 1373 1371 1369 1368 1367 1365 1363 1362 1360 1359 1358 1358 1357 1355 1353 1353 1352 1351 1348 1345 1344 1343 1340 1338 1336 1333 1330 1328 1328 1327 1325 1324 1323 1322 1322 1322 1323 1323 1324 1324 1325 1325 1324 1324 1323 1322 1323 1325 1327 1329 1331 1334 1336 1338 1339 1341 1341 1342 1342 1343 1344 1346 1348 1349 1350 1352 1354 1355 1356 1357 1359 1362 1364 1367 1369 1371 1374 1377 1379 1381 1382
1373 1372 1371 1370 1368 1367 1365 1363 1362 1361 1359 1358 1356 1354 1351 1350 1350 1349 1347 1346 1345 1345 1343 1341 1340 1339 1337 1334 1332 1330 1327 1325 1324 1322 1320 1320 1319 1318 1318 1318 1318 1318 1318 1319 1319 1318 1318 1318 1319 1318 1318 1319 1320 1321 1324 1326 1328 1330 1333 1335 1336 1337 1338 1339 1341 1343 1344 1344 1346 1348 1349 1350 1351 1353 1355 1357 1359 1362 1364 1367 1370 1373 1375 1377 1378
1370 1367 1366 1365 1363 1362 1361 1359 1357 1356 1354 1353 1352 1350 1347 1344 1342 1341 1341 1340 1338 1337 1336 1335 1335 1334 1333 1330 1327 1325 1323 1322 1320 1318 1316 1315 1314 1314 1314 1314 1314 1314 1314 1313 1312 1312 1312 1313 1314 1314 1314 1313 1312 1314 1316 1318 1320 1323 1326 1328 1329 1330 1332 1335 1338 1340 1340 1341 1342 1344 1345 1346 1348 1349 1351 1353 1355 1357 1359 1362 1365 1368 1371 1373 1374
1367 1364 1362 1361 1359 1358 1356 1355 1353 1352 1350 1348 1347 1346 1344 1342 1338 1335 1333 1333 1332 1331 1330 1329 1328 1328 1327 1326 1323 1321 1319 1317 1316 1314 1313 1311 1310 1310 1309 1309 1309 1311 1310 1306 1304 1305 1307 1308 1307 1308 1308 1307 1307 1308 1309 1311 1313 1316 1319 1320 1322 1324 1328 1332 1334 1336 1336 1337 1338 1339 1340 1342 1344 1345 1347 1348 1350 1352 1355 1358 1361 1364 1367 1369 1370
1362 1360 1359 1357 1355 1353 1352 1350 1349 1347 1345 1344 1342 1341 1340 1338 1336 1333 1329 1326 1325 1325 1324 1323 1323 1322 1321 1320 1318 1316 1314 1313 1311 1310 1309 1307 1306 1306 1305 1304 1303 1304 1305 1302 1298 1296 1298 1299 1299 1300 1301 1302 1302 1303 1303 1305 1307 1310 1312 1314 1316 1320 1323 1326 1328 1329 1331 1333 1334 1335 1336 1338 1339 1340 1342 1344 1346 1348 1351 1354 1357 1360 1363 1365 1367
1357 1355 1354 1353 1352 1349 1347 1346 1344 1342 1340 1339 1337 1336 1334 1333 1332 1330 1327 1324 1321 1319 1317 1317 1317 1317 1316 1314 1313 1311 1310 1308 1306 1305 1304 1303 1302 1302 1301 1299 1296 1297 1298 1297 1294 1291 1290 1290 1291 1293 1294 1296 1297 1298 1298 1299 1302 1304 1306 1308 1311 1314 1317 1319 1321 1324 1326 1327 1328 1330 1332 1334 1335 1337 1339 1340 1342 1344 1347 1350 1353 1357 1360 1362 1364
1350 1349 1348 1348 1347 1345 1342 1341 1339 1337 1336 1334 1332 1331 1329 1328 1326 1324 1322 1320 1317 1315 1312 1311 1311 1310 1309 1308 1308 1307 1305 1303 1301 1300 1299 1298 1298 1298 1295 1292 1290 1290 1290 1290 1290 1290 1288 1287 1287 1289 1290 1291 1292 1293 1294 1295 1296 1298 1300 1303 1305 1308 1311 1314 1317 1319 1321 1322 1324 1326 1328 1329 1331 1333 1335 1337 1338 1341 1344 1347 1350 1354 1356 1359 1361
1345 1343 1342 1341 1341 1339 1337 1335 1333 1332 1331 1329 1327 1325 1323 1321 1320 1319 1316 1314 1312 1310 1307 1305 1304 1303 1302 1301 1301 1301 1300 1298 1296 1294 1293 1293 1293 1292 1289 1286 1285 1284 1282 1282 1284 1286 1287 1286 1286 1287 1288 1288 1288 1289 1290 1290 1291 1293 1295 1298 1300 1302 1305 1308 1312 1315 1317 1318 1320 1321 1323 1325 1326 1328 1330 1332 1334 1337 1340 1343 1347 1350 1353 1356 1358
1338 1337 1336 1335 1335 1333 1330 1328 1326 1326 1325 1323 1322 1320 1318 1315 1314 1312 1310 1308 1306 1305 1302 1300 1299 1297 1295 1294 1294 1294 1293 1292 1290 1288 1287 1287 1286 1285 1284 1282 1281 1279 1276 1275 1277 1280 1282 1283 1285 1286 1286 1285 1285 1285 1286 1286 1287 1288 1289 1292 1295 1298 1301 1303 1306 1309 1311 1313 1315 1317 1319 1320 1322 1323 1325 1327 1329 1332 1336 1339 1343 1346 1349 1352 1354
1331 1330 1329 1329 1328 1326 1324 1322 1320 1319 1317 1316 1315 1314 1312 1310 1308 1306 1304 1302 1300 1298 1297 1295 1293 1292 1291 1290 1289 1287 1286 1285 1283 1282 1281 1280 1280 1279 1279 1278 1276 1275 1273 1271 1272 1273 1276 1278 1280 1282 1283 1283 1283 1282 1282 1283 1283 1283 1285 1288 1291 1293 1295 1297 1299 1301 1304 1307 1310 1312 1314 1316 1318 1320 1322 1324 1326 1329 1332 1336 1339 1343 1346 1349 1352
1323 1322 1321 1321 1321 1319 1318 1316 1314 1312 1311 1309 1308 1307 1305 1303 1302 1300 1298 1296 1294 1292 1291 1289 1287 1287 1287 1286 1285 1283 1280 1277 1276 1275 1275 1274 1273 1273 1273 1272 1271 1270 1270 1269 1268 1268 1269 1272 1275 1277 1278 1278 1279 1279 1279 1279 1279 1280 1282 1284 1286 1288 1290 1291 1292 1295 1298 1301 1305 1308 1310 1312 1314 1316 1318 1321 1323 1326 1329 1332 1336 1340 1344 1347 1350
1316 1314 1313 1313 1313 1312 1310 1309 1307 1306 1305 1303 1301 1300 1298 1296 1295 1294 1292 1290 1287 1286 1284 1283 1281 1281 1282 1281 1280 1278 1275 1272 1269 1268 1268 1267 1266 1266 1266 1266 1265 1265 1265 1265 1265 1264 1264 1266 1268 1271 1272 1273 1274 1275 1275 1275 1275 1276 1278 1279 1281 1283 1285 1286 1287 1289 1292 1296 1300 1303 1306 1309 1311 1313 1315 1318 1320 1323 1326 1329 1333 1337 1341 1344 1347
1310 1307 1306 1305 1305 1304 1303 1301 1300 1299 1298 1296 1294 1293 1291 1290 1288 1287 1285 1283 1281 1280 1278 1276 1275 1275 1275 1275 1274 1272 1269 1266 1264 1262 1261 1261 1260 1260 1259 1260 1260 1260 1261 1261 1262 1261 1261 1261 1262 1264 1266 1267 1268 1269 1270 1270 1270 1271 1273 1274 1275 1277 1279 1281 1282 1285 1288 1291 1295 1299 1302 1305 1308 1310 1313 1315 1317 1319 1322 1325 1330 1334 1338 1341 1344
1303 1301 1299 1297 1297 1296 1295 1294 1293 1292 1291 1289 1288 1286 1285 1283 1282 1280 1278 1276 1275 1274 1272 1270 1269 1268 1268 1267 1267 1266 1263 1260 1258 1256 1255 1255 1254 1254 1253 1253 1254 1254 1255 1256 1257 1258 1257 1257 1257 1258 1260 1262 1263 1264 1265 1265 1266 1267 1268 1268 1270 1271 1273 1275 1277 1280 1282 1286 1290 1294 1298 1301 1304 1307 1309 1312 1314 1316 1318 1322 1327 1331 1334 1337 1340
1296 1294 1292 1290 1289 1288 1287 1286 1286 1284 1283 1282 1281 1280 1278 1277 1276 1274 1272 1271 1269 1268 1267 1265 1263 1262 1261 1260 1260 1258 1256 1254 1252 1251 1249 1249 1248 1247 1247 1248 1248 1249 1249 1250 1252 1253 1253 1252 1252 1252 1254 1255 1257 1259 1260 1261 1262 1262 1263 1263 1264 1265 1267 1269 1271 1274 1277 1281 1284 1288 1292 1296 1300 1303 1305 1308 1310 1312 1315 1319 1324 1327 1331 1334 1337
1289 1287 1285 1284 1282 1281 1280 1279 1279 1278 1277 1276 1274 1273 1272 1271 1270 1268 1266 1265 1263 1262 1261 1259 1258 1256 1255 1254 1253 1251 1249 1248 1246 1245 1244 1243 1243 1242 1242 1243 1243 1244 1244 1245 1246 1247 1247 1247 1247 1247 1248 1249 1251 1253 1255 1256 1257 1258 1259 1259 1260 1260 1261 1264 1267 1270 1272 1275 1278 1282 1286 1291 1295 1298 1302 1305 1307 1309 1312 1317 1321 1325 1329 1332 1335
1283 1280 1278 1277 1275 1274 1273 1273 1272 1271 1270 1269 1268 1266 1265 1265 1264 1262 1261 1259 1258 1256 1255 1253 1252 1251 1249 1248 1247 1245 1244 1242 1241 1239 1238 1238 1237 1237 1237 1237 1238 1238 1239 1240 1240 1241 1241 1242 1242 1242 1242 1244 1245 1247 1249 1251 1252 1253 1254 1255 1256 1257 1258 1260 1263 1265 1267 1269 1273 1277 1281 1286 1290 1295 1299 1302 1304 1307 1311 1315 1319 1323 1327 1331 1334
1276 1274 1272 1271 1269 1268 1267 1266 1266 1265 1264 1263 1261 1260 1259 1258 1257 1257 1255 1254 1252 1251 1249 1247 1246 1244 1243 1242 1241 1240 1239 1237 1236 1234 1233 1232 1232 1232 1232 1232 1233 1233 1234 1235 1235 1235 1236 1236 1236 1237 1238 1239 1240 1242 1244 1245 1247 1248 1249 1250 1251 1253 1256 1257 1259 1261 1263 1265 1268 1272 1276 1281 1287 1292 1295 1298 1301 1304 1308 1313 1318 1322 1326 1329 1332
1270 1269 1267 1265 1264 1262 1261 1260 1260 1259 1257 1256 1255 1254 1253 1252 1251 1250 1249 1248 1246 1245 1243 1241 1240 1238 1237 1236 1235 1234 1233 1232 1231 1229 1228 1227 1227 1227 1227 1227 1228 1229 1229 1230 1230 1230 1230 1231 1231 1233 1234 1235 1236 1238 1239 1241 1242 1244 1245 1246 1247 1250 1252 1254 1256 1257 1259 1262 1265 1268 1273 1278 1284 1288 1292 1295 1298 1301 1306 1311 1316 1320 1323 1327 1329
1265 1264 1262 1260 1259 1257 1256 1255 1254 1253 1252 1251 1250 1249 1248 1247 1246 1245 1243 1242 1241 1239 1237 1236 1234 1233 1232 1230 1229 1229 1228 1227 1225 1224 1223 1222 1222 1222 1222 1222 1223 1224 1225 1226 1225 1225 1225 1226 1227 1228 1230 1230 1231 1233 1235 1237 1238 1240 1241 1242 1245 1247 1249 1251 1252 1254 1257 1260 1262 1266 1271 1276 1281 1286 1289 1292 1296 1300 1304 1308 1313 1317 1320 1323 1326
1261 1259 1258 1256 1255 1253 1252 1251 1250 1249 1248 1247 1246 1244 1243 1242 1240 1239 1238 1237 1236 1234 1233 1231 1229 1228 1227 1225 1224 1224 1223 1222 1220 1219 1218 1217 1217 1217 1217 1218 1219 1220 1221 1222 1221 1221 1220 1221 1222 1224 1225 1226 1227 1229 1231 1234 1235 1237 1238 1240 1243 1245 1246 1247 1249 1252 1255 1257 1260 1264 1269 1274 1279 1283 1287 1290 1293 1297 1301 1306 1310 1313 1317 1320 1323
1257 1256 1254 1253 1252 1250 1249 1248 1246 1245 1244 1243 1242 1240 1239 1237 1236 1234 1233 1232 1231 1230 1228 1226 1225 1223 1222 1220 1219 1218 1217 1216 1215 1214 1212 1212 1212 1212 1213 1214 1215 1216 1217 1218 1217 1217 1217 1217 1218 1220 1221 1223 1224 1226 1228 1231 1233 1235 1237 1239 1241 1243 1245 1247 1249 1251 1253 1255 1258 1262 1268 1272 1277 1280 1284 1287 1291 1295 1299 1303 1307 1311 1314 1318 1321